User: anonymous   Login
Location: Chuathbaluk
(61.5726°N, 159.2454°W)
Time: 10:48:35
(UTC+00:00)
Language:

CUTE-I - Orbit

View from above orbital plane
View from above orbital plane
View from above satellite
View from above satellite

Ground track
Ground track

The orbit data is extracted from the following two-line orbital elements,

1 27844U 03031E   21017.01600635  .00000039  00000-0  37075-4 0  9992
2 27844  98.6816  27.5164 0010337 152.1571 208.0162 14.22282441910498
Epoch (UTC): 17 January 2021 00:23:02
Eccentricity: 0.0010337
inclination: 98.6816°
perigee height: 810 km
apogee height: 825 km
right ascension of ascending node: 27.5164°
argument of perigee: 152.1571°
revolutions per day: 14.22282441
mean anomaly at epoch: 208.0162°
orbit number at epoch: 91049

The dashed part of the orbit path shows where the satellite is in the earth's shadow,  

DLR